EUTELSAT 117 WEST B (41589 NORAD) Tracking and Keplerian Element Data

This shows tracking and keplerian element data for the satellite.

Feedback or suggestion? Click here.




ElementValue
Catalog41589
NameEUTELSAT 117 WEST B
Epoch Orbit922
Epoch Day349.0924976
Epoch Year2018
RAAN165.8371
Inclination0.0125
Eccentricity2.36E-05
Argument of Perigee163.5369
Mean Anonmoly30.6388
Mean Motion1.00270669
Decay Rate0
L11 41589U 16038B 18349.09249760 .00000000 00000-0 00000+0 0 9996
L22 41589 0.0125 165.8371 0000236 163.5369 30.6388 1.00270669 9224

Live tracking and technical data element details for EUTELSAT 117 WEST B (NORAD 41589). EUTELSAT 117 WEST B can be tracked NOW for your location showing map with azimuth and elevation plus other details from your city location.

Track the satellite on the map from your city or location and see movement details for azimuth, elevation, latitude, longitude, range, height, and movement on the map or in text.







IsCatalogInMostPopularTable: catalog: 41589, numindb: 146
Update: records affected: 1



GetName: 41589 EUTELSAT 117 WEST B

Hit Count: updated at: Sat, 15 Dec 2018 14:01:29 GMT